Location: Newark
(47.5783°N, 6.7622°E)
Time: 21:07:08
(UTC+00:00)

Envisat - Visible Passes

Search period start: 21 January 2020 00:00
Search period end: 31 January 2020 00:00
Orbit: 764 x 766 km, 98.1° (Epoch: 21 January)

Date Brightness Start Highest point End Pass type
(mag) Time Alt. Az. Time Alt. Az. Time Alt. Az.
21 Jan 5.4 05:22:09 10° NE 05:26:18 25° E 05:30:26 10° SSE visible
21 Jan 5.2 18:19:25 10° SSW 18:23:41 27° W 18:27:58 10° NW visible
22 Jan 6.3 04:47:15 10° ENE 04:49:04 12° E 04:50:53 10° ESE visible
22 Jan 3.1 06:23:45 10° NNE 06:28:53 84° ESE 06:33:58 10° SSW visible
22 Jan 3.8 17:41:42 10° S 17:46:40 54° W 17:51:40 10° NNW visible
23 Jan 4.5 05:47:11 10° NNE 05:51:59 41° E 05:56:46 10° SSE visible
23 Jan 3.0 17:04:48 10° SSE 17:09:51 74° ENE 17:14:57 10° N visible
23 Jan 6.0 18:46:21 10° SW 18:49:26 16° W 18:52:33 10° NW visible
24 Jan 5.8 05:11:11 10° NE 05:14:54 20° E 05:18:36 10° SE visible
24 Jan 4.8 18:07:45 10° SSW 18:12:17 33° W 18:16:52 10° NNW visible
25 Jan 3.4 06:12:29 10° NNE 06:17:35 69° ESE 06:22:37 10° S visible
25 Jan 3.4 17:30:18 10° S 17:35:21 68° WSW 17:40:26 10° NNW visible
26 Jan 4.9 05:36:02 10° NNE 05:40:38 33° E 05:45:11 10° SSE visible
26 Jan 3.0 16:53:36 10° SSE 16:58:36 60° ENE 17:03:37 10° N visible
26 Jan 5.7 18:34:20 10° SW 18:38:01 20° W 18:41:43 10° NW visible
27 Jan 6.1 05:00:20 10° NE 05:03:29 16° E 05:06:36 10° SE visible
27 Jan 4.4 17:56:10 10° SSW 18:00:56 40° W 18:05:44 10° NNW visible
28 Jan 3.9 06:01:15 10° NNE 06:06:16 55° E 06:11:14 10° S visible
28 Jan 3.1 17:18:57 10° SSE 17:24:02 84° WSW 17:29:10 10° NNW visible
28 Jan 6.3 19:02:06 10° WSW 19:03:51 12° W 19:05:36 10° WNW visible
29 Jan 5.3 05:24:57 10° NE 05:29:15 27° E 05:33:30 10° SSE visible
29 Jan 5.4 18:22:30 10° SSW 18:26:37 25° W 18:30:45 10° NW visible
30 Jan 6.3 04:49:44 10° ENE 04:52:02 13° E 04:54:19 10° ESE visible
30 Jan 3.1 06:26:39 10° NNE 06:31:47 89° WNW 06:36:52 10° SSW visible
30 Jan 4.0 17:44:39 10° S 17:49:35 50° W 17:54:32 10° NNW visible
